Regional Weather Roundup
Issued by NWS

Home | Current Version | Previous Version | Graphics & Text | Print | Product List | Glossary On
Versions: 1 2 3 4 5 6 7 8 9 10 11 12 13 14 15 16 17 18 19 20 21 22 23 24 25 26 27 28 29 30 31 32 33 34 35 36 37 38 39 40 41 42 43 44 45 46 47 48 49 50
000
ASUS45 KCYS 260310
RWRWY

WYOMING REGIONAL WEATHER ROUNDUP
NATIONAL WEATHER SERVICE CHEYENNE WY
900 PM MDT FRI JUL 25 2014

NOTE:  "FAIR" INDICATES FEW OR NO CLOUDS BELOW 12,000 FEET
WITH NO SIGNIFICANT WEATHER AND/OR OBSTRUCTIONS TO VISIBILITY.

WYZ001-260400-
YELLOWSTONE NATIONAL PARK

CITY           SKY/WX    TMP DP  RH WIND       PRES   REMARKS
LK YELLOWSTONE   N/A     53  32  44 CALM      30.28R
W YELLOWSTONE  NOT AVBL

$$
WYZ002>013-054>058-071-098>099-260400-
NORTHERN WYOMING

CITY           SKY/WX    TMP DP  RH WIND       PRES   REMARKS
JACKSON        CLEAR     68  23  18 S9        30.16R
CODY           NOT AVBL
GREYBULL       PTCLDY    84  27  12 NW18      29.87R
WORLAND        PTCLDY    77  41  27 NE6       29.89R
SHERIDAN       CLEAR     69  41  36 W9        29.94R
BUFFALO        PTCLDY    74  40  29 NW17G26   30.01R
GILLETTE       PTCLDY    74  47  38 NE8       29.92R
HULETT         FAIR      68  52  56 MISG      29.94
NEWCASTLE      FAIR      77  41  27 E7        29.90

$$
WYZ014>020-022>026-101>103-260400-
CENTRAL WYOMING

CITY           SKY/WX    TMP DP  RH WIND       PRES   REMARKS
BIG PINEY      CLEAR     69  24  18 N14       30.20R
PINEDALE       CLEAR     63  32  31 NW6       30.22R
DUBOIS         FAIR      64  23  20 NW10      30.18R
LANDER         CLEAR     78  29  16 W9        30.01R
RIVERTON       CLEAR     79  22  12 NW16      30.01R
CASPER         CLEAR     76  27  16 W9        29.96R
DOUGLAS        PTCLDY    73  53  49 E7        29.93R

$$
WYZ021-027>030-104>119-260400-
SOUTHERN WYOMING

CITY           SKY/WX    TMP DP  RH WIND       PRES   REMARKS
EVANSTON       CLEAR     73  32  22 NW8       30.19R
KEMMERER       CLEAR     68  23  18 NW9       30.22R
FORT BRIDGER   FAIR      75  26  16 NW8       30.21R
ROCK SPRINGS   CLEAR     77  24  14 NW12      30.15R
DIXON          FAIR      70  44  38 SE13G22   30.19R
RAWLINS        PTCLDY    76  42  29 SW13      30.15R
SARATOGA       FAIR      70  45  40 SE13      30.19R
LARAMIE        CLOUDY    66  44  45 S6        30.19R
CHEYENNE       MOCLDY    72  52  49 S13       30.12F
TORRINGTON     PTCLDY    72  61  68 E14       29.91R
PINE BLUFFS    FAIR      70  55  60 S8        30.06F

$$



USA.gov is the U.S. government's official web portal to all federal, state and local government web resources and services.